CZ-6A DEB, 61338

Orbit data source: Space-Track

CZ-6A DEB, 61338 is space debris in LEO originally from a launch on Tue, 06 Aug 2024 UTC launched from the Taiyaun Space Center, China (TSC). Debris objects in space refer to the collection of defunct objects orbiting the Earth. Examples of debris include non-operational satellites, rocket bodies, and fragments generated from explosions, collisions, or faulty payload assembly.

Loading next visibility...
Identifier
61338, 2024-140VB
Orbit
LEO
Country
Flag of CNCN / PRC
Related business
Manufacturer
SAST
Mission
Spacecraft
Bus & Motor
Unknown
Mass
Unknown
Launch date (UTC)
2024-08-06 (2 years ago)
Launch vehicle
Unknown
Launch site
Taiyaun Space Center, China (TSC)
Object type
Payload
Rocket body
Debris
Shape & HBR
Unknown shape, 0.1 m
Radar Cross Section
Medium (>0.1 m² and <1 m²)

Expand to show TLE details & history
Last TLE update: 16 hours ago

TLE from 16 hours ago
0 CZ-6A DEB
1 61338U 24140VB  26171.29790375  .00004195  00000-0  19845-2 0  9999
2 61338  88.9896 274.4989 0088817 202.8753 156.8469 14.17485669 92565
Epoch: 2026-06-20T07:08Z
TLE epoch observation values (Epoch: 2026-06-20T07:08:58.884Z)
Latitude
-0.00006°
Longitude
-101.26099°
Altitude
895.913 km
Speed
7.374 km/s
True Right ascension
18h 17m 59s
True Declination
0° 00' 00"
Sunlit
Object was in full shadow at epoch
Visualization orbit readout
Latitude
Unknown
Longitude
Unknown
Altitude
Unknown
Speed
Unknown
Apparent Right ascension
Unknown
Apparent Declination
Unknown
Sunlit
N/A
Visualization observer readout
Local Sidereal Time
10:18:07
Azimuth
Unknown
Elevation
Unknown
Doppler factor
Unknown
Orbital elements
Apogee altitude
894.851 km
Perigee altitude
766.795 km
Semi-major axis
7,208.96 km
Eccentricity
0.00888
Inclination
88.9896°
RAAN
274.4989°
Arg. of periapsis
202.8753°
True anomaly
157.24303°
Mean anomaly
156.8469°
Eccentric anomaly
157.04537°
Mean motion
3.54596 °/min
Orbital period
101.52 mins
BSTAR
0.0019845
Loading maneuver chart data...
Computing Atmospheric mass density...
Loading historical data...
Loading historical data...
Loading historical data...
Loading historical data...
Loading historical data...
Loading historical data...
Loading historical data...

Documentation

Showing up to 5 results
|